Regional Weather Roundup
Issued by NWS Midland/Odessa, TX

Skip options and go directly to product.
Home | Oldest Version | Previous Version | Current Version | All | Text Only | Save Text | Print | Product List | Glossary Off

Skip product version selection by date and time.   

947
ASUS44 KMAF 050710
RWRMAF
MIDLAND AREA WEATHER ROUNDUP
NATIONAL WEATHER SERVICE MIDLAND TX
200 AM CDT TUE MAY 05 2015

...IN SOUTHWEST TEXAS AND SOUTHEAST NEW MEXICO...

CITY           SKY/WX    TMP DP  RH WIND       PRES   REMARKS
ALPINE         MOCLDY    64  57  79 SW5       29.92F
ANDREWS        DRIZZLE   64  64 100 SE10      29.88F
ARTESIA        DRIZZLE   59  59 100 N18       29.90F
BIG SPRING     CLOUDY    67  60  78 SE22G31   29.92F
CARLSBAD       TSTM      61  58  90 NW18G24   29.84F VSB 3/4
DRYDEN           N/A     70  64  81 SE21G37   29.84F
FORT STOCKTON  PTCLDY    66  61  84 SE28G38   29.79F
GUAD PASS      MOCLDY    57  56  96 N6        29.93F
HOBBS          CLOUDY    57  57 100 NE12      29.91F
MARFA          CLEAR     57  55  94 S3        29.91F
MIDLAND AIRPK  CLOUDY    66  62  87 SE14G24   29.89R
MIDLAND INTL   CLOUDY    65  63  93 SE15      29.88R
ODESSA         CLOUDY    65  60  84 SE20G35   29.88F
PECOS          CLEAR     67  60  79 E14       29.79F
PRESIDIO       FAIR      73  58  59 NE12G17   29.77S
SEMINOLE       HVY RAIN  59  58  97 E8        29.91F
SNYDER         RAIN      64  62  91 SW6       29.95R
WINK           CLOUDY    67  61  81 SE17G24   29.80F
$$
...OTHER STATIONS IN TEXAS...

CITY           SKY/WX    TMP DP  RH WIND       PRES   REMARKS
ABILENE        CLOUDY    69  58  67 S18G25    29.95S
AMARILLO       LGT RAIN  57  55  93 S10       30.00F
AUSTIN         PTCLDY    64  61  90 S5        30.01F
BROWNSVILLE    PTCLDY    76  71  85 SE13      29.96F
CORPUS CHRISTI MOCLDY    73  69  87 SE12      29.97F
DALLAS FTW     MOCLDY    66  55  67 SE10      30.02R
DEL RIO        CLOUDY    73  63  70 E17G28    29.89F
EL PASO        PTCLDY    67  51  56 W10       29.89R
HOUSTON INT    PTCLDY    65  64  97 E5        30.03F
LUBBOCK        TSTM      59  58  96 E12       29.88F
SAN ANGELO     CLOUDY    71  59  65 S15G21    29.93F
SAN ANTONIO    CLOUDY    70  65  84 SE13      29.99F
WACO           CLEAR     66  58  75 S8        30.02R
WICHITA FALLS  NOT AVBL
$$
...OTHER LOCATIONS IN NEW MEXICO...

CITY           SKY/WX    TMP DP  RH WIND       PRES   REMARKS
ALAMAGORDO     CLOUDY    57  55  94 NE14      29.93F
ALBUQUERQUE    CLOUDY    55  49  80 N6        29.98F
CANNON AFB     CLOUDY    54  54 100 SE13      29.98S
CLOVIS         CLOUDY    54  50  87 SE12      29.97F
HOLLOMAN AFB   CLOUDY    58  58  99 NE8       29.90S
ROSWELL        RAIN      57  55  93 NE13      29.93S FOG
RUIDOSO        LGT RAIN  48  48 100 SE7       30.05S
SANTA FE       CLOUDY    49  45  86 CALM      30.02S
TRUTH OR CONSE CLOUDY    59  42  53 CALM      29.96R
TUCUMCARI      NOT AVBL
$$

USA.gov is the U.S. government's official web portal to all federal, state and local government web resources and services.